Time,TemperatureF,DewpointF,PressureIn,WindDirection,WindDirectionDegrees,WindSpeedMPH,WindSpeedGustMPH,Humidity,HourlyPrecipIn,Conditions,Clouds,dailyrainin,SoftwareType,DateUTC
2013-08-17 00:04:00,62.0,59.0,30.08,North,8,2.0,2.0,90,0.00,,,0.00,Wunderground v.1.15,2013-08-17 05:04:00,
2013-08-17 00:09:00,61.8,58.8,30.08,North,11,2.0,3.0,90,0.00,,,0.00,Wunderground v.1.15,2013-08-17 05:09:00,
2013-08-17 00:15:00,61.6,58.6,30.08,North,6,2.0,2.0,90,0.00,,,0.00,Wunderground v.1.15,2013-08-17 05:15:00,
2013-08-17 00:21:00,61.8,58.8,30.08,North,9,2.0,4.0,90,0.00,,,0.00,Wunderground v.1.15,2013-08-17 05:21:00,
2013-08-17 00:26:00,61.8,58.5,30.08,North,3,3.0,3.0,89,0.00,,,0.00,Wunderground v.1.15,2013-08-17 05:26:00,
2013-08-17 00:32:00,61.8,58.5,30.08,NNE,13,3.0,4.0,89,0.00,,,0.00,Wunderground v.1.15,2013-08-17 05:32:00,
2013-08-17 00:38:00,61.6,58.6,30.08,North,354,3.0,3.0,90,0.00,,,0.00,Wunderground v.1.15,2013-08-17 05:38:00,
2013-08-17 00:44:00,61.3,58.3,30.08,NNE,22,2.0,2.0,90,0.00,,,0.00,Wunderground v.1.15,2013-08-17 05:44:00,
2013-08-17 00:50:00,61.1,58.1,30.08,NNE,13,2.0,2.0,90,0.00,,,0.00,Wunderground v.1.15,2013-08-17 05:50:00,
2013-08-17 00:56:00,61.0,58.4,30.08,NNE,19,2.0,3.0,91,0.00,,,0.00,Wunderground v.1.15,2013-08-17 05:56:00,
2013-08-17 01:05:00,60.9,58.3,30.08,NNE,25,2.0,2.0,91,0.00,,,0.00,Wunderground v.1.15,2013-08-17 06:05:00,
2013-08-17 01:10:00,61.1,58.5,30.08,NNE,14,2.0,2.0,91,0.00,,,0.00,Wunderground v.1.15,2013-08-17 06:10:00,
2013-08-17 01:15:00,61.1,58.5,30.08,North,11,2.0,2.0,91,0.00,,,0.00,Wunderground v.1.15,2013-08-17 06:15:00,
2013-08-17 01:21:00,61.4,58.4,30.08,NNE,26,2.0,2.0,90,0.00,,,0.00,Wunderground v.1.15,2013-08-17 06:21:00,
2013-08-17 01:27:00,61.5,58.5,30.08,NNE,22,1.0,2.0,90,0.00,,,0.00,Wunderground v.1.15,2013-08-17 06:27:00,
2013-08-17 01:32:00,61.5,58.2,30.08,North,1,1.0,2.0,89,0.00,,,0.00,Wunderground v.1.15,2013-08-17 06:32:00,
2013-08-17 01:38:00,61.3,58.3,30.08,NNE,13,2.0,2.0,90,0.00,,,0.00,Wunderground v.1.15,2013-08-17 06:38:00,
2013-08-17 01:43:00,61.2,58.2,30.08,NNE,26,1.0,2.0,90,0.00,,,0.00,Wunderground v.1.15,2013-08-17 06:43:00,
2013-08-17 01:49:00,61.2,58.2,30.08,NNE,27,1.0,2.0,90,0.00,,,0.00,Wunderground v.1.15,2013-08-17 06:49:00,
2013-08-17 01:55:00,61.1,58.1,30.08,NNE,18,1.0,1.0,90,0.00,,,0.00,Wunderground v.1.15,2013-08-17 06:55:00,
2013-08-17 02:05:00,61.0,58.0,30.08,NE,34,1.0,1.0,90,0.00,,,0.00,Wunderground v.1.15,2013-08-17 07:05:00,
2013-08-17 02:10:00,60.7,57.7,30.08,NNE,20,1.0,1.0,90,0.00,,,0.00,Wunderground v.1.15,2013-08-17 07:10:00,
2013-08-17 02:15:00,60.5,57.9,30.08,NE,41,1.0,1.0,91,0.00,,,0.00,Wunderground v.1.15,2013-08-17 07:15:00,
2013-08-17 02:21:00,60.2,57.6,30.08,NNE,21,0.0,1.0,91,0.00,,,0.00,Wunderground v.1.15,2013-08-17 07:21:00,
2013-08-17 02:27:00,60.0,57.4,30.08,NNE,21,0.0,0.0,91,0.00,,,0.00,Wunderground v.1.15,2013-08-17 07:27:00,
2013-08-17 02:33:00,59.8,57.5,30.08,NNE,22,0.0,0.0,92,0.00,,,0.00,Wunderground v.1.15,2013-08-17 07:33:00,
2013-08-17 02:38:00,59.6,57.3,30.08,NNE,21,0.0,0.0,92,0.00,,,0.00,Wunderground v.1.15,2013-08-17 07:38:00,
2013-08-17 02:44:00,59.5,57.2,30.08,NNE,21,0.0,0.0,92,0.00,,,0.00,Wunderground v.1.15,2013-08-17 07:44:00,
2013-08-17 02:50:00,59.3,57.0,30.08,NNE,21,0.0,0.0,92,0.00,,,0.00,Wunderground v.1.15,2013-08-17 07:50:00,
2013-08-17 02:55:00,59.4,57.4,30.08,NNE,21,0.0,0.0,93,0.00,,,0.00,Wunderground v.1.15,2013-08-17 07:55:00,
2013-08-17 03:04:00,59.4,57.4,30.08,NNE,26,0.0,0.0,93,0.00,,,0.00,Wunderground v.1.15,2013-08-17 08:04:00,
2013-08-17 03:10:00,59.1,56.8,30.09,ENE,65,0.0,0.0,92,0.00,,,0.00,Wunderground v.1.15,2013-08-17 08:10:00,
2013-08-17 03:16:00,58.9,56.9,30.09,ENE,64,0.0,0.0,93,0.00,,,0.00,Wunderground v.1.15,2013-08-17 08:16:00,
2013-08-17 03:22:00,58.8,56.8,30.08,ENE,65,0.0,0.0,93,0.00,,,0.00,Wunderground v.1.15,2013-08-17 08:22:00,
2013-08-17 03:27:00,58.7,56.7,30.09,ENE,65,0.0,0.0,93,0.00,,,0.00,Wunderground v.1.15,2013-08-17 08:27:00,
2013-08-17 03:33:00,58.7,56.7,30.09,ENE,63,0.0,0.0,93,0.00,,,0.00,Wunderground v.1.15,2013-08-17 08:33:00,
2013-08-17 03:39:00,59.0,57.3,30.09,North,352,0.0,1.0,94,0.00,,,0.00,Wunderground v.1.15,2013-08-17 08:39:00,
2013-08-17 03:45:00,59.1,57.1,30.09,North,352,0.0,0.0,93,0.00,,,0.00,Wunderground v.1.15,2013-08-17 08:45:00,
2013-08-17 03:50:00,59.1,57.4,30.09,North,352,0.0,1.0,94,0.00,,,0.00,Wunderground v.1.15,2013-08-17 08:50:00,
2013-08-17 03:56:00,59.3,57.6,30.09,North,354,0.0,1.0,94,0.00,,,0.00,Wunderground v.1.15,2013-08-17 08:56:00,
2013-08-17 04:02:00,59.6,57.9,30.09,North,355,0.0,1.0,94,0.00,,,0.00,Wunderground v.1.15,2013-08-17 09:02:00,
2013-08-17 04:07:00,59.6,57.6,30.09,North,359,0.0,2.0,93,0.00,,,0.00,Wunderground v.1.15,2013-08-17 09:07:00,
2013-08-17 04:13:00,59.8,57.8,30.09,North,3,1.0,1.0,93,0.00,,,0.00,Wunderground v.1.15,2013-08-17 09:13:00,
2013-08-17 04:18:00,59.9,57.9,30.09,North,9,1.0,2.0,93,0.00,,,0.00,Wunderground v.1.15,2013-08-17 09:18:00,
2013-08-17 04:24:00,59.9,57.9,30.09,NNE,13,1.0,2.0,93,0.00,,,0.00,Wunderground v.1.15,2013-08-17 09:24:00,
2013-08-17 04:30:00,60.0,58.0,30.09,North,5,1.0,1.0,93,0.00,,,0.00,Wunderground v.1.15,2013-08-17 09:30:00,
2013-08-17 04:36:00,60.0,57.7,30.09,North,360,1.0,2.0,92,0.00,,,0.00,Wunderground v.1.15,2013-08-17 09:36:00,
2013-08-17 04:42:00,60.0,57.7,30.09,North,11,1.0,2.0,92,0.00,,,0.00,Wunderground v.1.15,2013-08-17 09:42:00,
2013-08-17 04:47:00,60.0,57.7,30.09,NNE,15,1.0,2.0,92,0.00,,,0.00,Wunderground v.1.15,2013-08-17 09:47:00,
2013-08-17 04:53:00,60.1,57.8,30.09,North,357,1.0,2.0,92,0.00,,,0.00,Wunderground v.1.15,2013-08-17 09:53:00,
2013-08-17 04:58:00,60.2,57.9,30.09,North,1,2.0,2.0,92,0.00,,,0.00,Wunderground v.1.15,2013-08-17 09:58:00,
2013-08-17 05:04:00,60.3,58.0,30.09,North,6,1.0,2.0,92,0.00,,,0.00,Wunderground v.1.15,2013-08-17 10:04:00,
2013-08-17 05:10:00,60.3,58.0,30.09,North,352,1.0,2.0,92,0.00,,,0.00,Wunderground v.1.15,2013-08-17 10:10:00,
2013-08-17 05:15:00,60.4,57.8,30.09,NNW,343,1.0,1.0,91,0.00,,,0.00,Wunderground v.1.15,2013-08-17 10:15:00,
2013-08-17 05:21:00,60.3,57.7,30.09,North,352,0.0,1.0,91,0.00,,,0.00,Wunderground v.1.15,2013-08-17 10:21:00,
2013-08-17 05:27:00,60.3,57.7,30.09,North,352,0.0,1.0,91,0.00,,,0.00,Wunderground v.1.15,2013-08-17 10:27:00,
2013-08-17 05:32:00,60.3,57.7,30.09,North,352,1.0,2.0,91,0.00,,,0.00,Wunderground v.1.15,2013-08-17 10:32:00,
2013-08-17 05:38:00,60.4,57.8,30.09,NNE,18,1.0,2.0,91,0.00,,,0.00,Wunderground v.1.15,2013-08-17 10:38:00,
2013-08-17 05:44:00,60.3,57.7,30.09,East,81,1.0,1.0,91,0.00,,,0.00,Wunderground v.1.15,2013-08-17 10:44:00,
2013-08-17 05:49:00,60.1,57.8,30.09,NNE,19,1.0,1.0,92,0.00,,,0.00,Wunderground v.1.15,2013-08-17 10:49:00,
2013-08-17 05:55:00,60.0,57.7,30.09,North,11,1.0,1.0,92,0.00,,,0.00,Wunderground v.1.15,2013-08-17 10:55:00,
2013-08-17 06:05:00,60.0,57.7,30.09,North,8,0.0,0.0,92,0.00,,,0.00,Wunderground v.1.15,2013-08-17 11:05:00,
2013-08-17 06:10:00,59.6,57.3,30.09,NE,34,0.0,0.0,92,0.00,,,0.00,Wunderground v.1.15,2013-08-17 11:10:00,
2013-08-17 06:15:00,59.4,57.1,30.09,North,9,1.0,2.0,92,0.00,,,0.00,Wunderground v.1.15,2013-08-17 11:15:00,
2013-08-17 06:21:00,59.3,57.3,30.09,North,1,1.0,2.0,93,0.00,,,0.00,Wunderground v.1.15,2013-08-17 11:21:00,
2013-08-17 06:27:00,59.2,57.2,30.09,North,355,1.0,2.0,93,0.00,,,0.00,Wunderground v.1.15,2013-08-17 11:27:00,
2013-08-17 06:32:00,59.1,57.1,30.09,NNE,15,2.0,2.0,93,0.00,,,0.00,Wunderground v.1.15,2013-08-17 11:32:00,
2013-08-17 06:38:00,59.1,57.1,30.10,NNE,14,1.0,2.0,93,0.00,,,0.00,Wunderground v.1.15,2013-08-17 11:38:00,
2013-08-17 06:44:00,59.0,57.0,30.10,NNW,342,1.0,2.0,93,0.00,,,0.00,Wunderground v.1.15,2013-08-17 11:44:00,
2013-08-17 06:50:00,58.9,56.9,30.10,North,11,1.0,2.0,93,0.00,,,0.00,Wunderground v.1.15,2013-08-17 11:50:00,
2013-08-17 06:56:00,58.9,56.9,30.10,North,360,1.0,1.0,93,0.00,,,0.00,Wunderground v.1.15,2013-08-17 11:56:00,
2013-08-17 07:05:00,58.9,56.9,30.10,North,5,1.0,1.0,93,0.00,,,0.00,Wunderground v.1.15,2013-08-17 12:05:00,
2013-08-17 07:07:00,58.8,56.8,30.10,North,350,1.0,1.0,93,0.00,,,0.00,Wunderground v.1.15,2013-08-17 12:07:00,
2013-08-17 07:12:00,58.8,56.8,30.10,NNE,16,1.0,2.0,93,0.00,,,0.00,Wunderground v.1.15,2013-08-17 12:12:00,
2013-08-17 07:18:00,59.0,57.0,30.10,North,10,1.0,2.0,93,0.00,,,0.00,Wunderground v.1.15,2013-08-17 12:18:00,
2013-08-17 07:24:00,59.1,57.1,30.10,NNE,16,1.0,2.0,93,0.00,,,0.00,Wunderground v.1.15,2013-08-17 12:24:00,
2013-08-17 07:30:00,59.3,57.3,30.10,NNE,27,1.0,3.0,93,0.00,,,0.00,Wunderground v.1.15,2013-08-17 12:30:00,
2013-08-17 07:36:00,59.3,57.3,30.10,NNE,27,1.0,1.0,93,0.00,,,0.00,Wunderground v.1.15,2013-08-17 12:36:00,
2013-08-17 07:42:00,59.4,57.1,30.10,NNE,18,1.0,3.0,92,0.00,,,0.00,Wunderground v.1.15,2013-08-17 12:42:00,
2013-08-17 07:48:00,59.5,57.2,30.11,NNE,26,1.0,3.0,92,0.00,,,0.00,Wunderground v.1.15,2013-08-17 12:48:00,
2013-08-17 07:54:00,59.6,57.3,30.11,NE,56,2.0,3.0,92,0.00,,,0.00,Wunderground v.1.15,2013-08-17 12:54:00,
2013-08-17 07:59:00,59.7,57.4,30.11,NNE,31,2.0,2.0,92,0.00,,,0.00,Wunderground v.1.15,2013-08-17 12:59:00,
2013-08-17 08:05:00,60.1,57.5,30.11,ENE,76,1.0,2.0,91,0.00,,,0.00,Wunderground v.1.15,2013-08-17 13:05:00,
2013-08-17 08:11:00,60.8,57.8,30.11,NE,38,1.0,3.0,90,0.00,,,0.00,Wunderground v.1.15,2013-08-17 13:11:00,
2013-08-17 08:17:00,61.9,58.6,30.11,North,11,1.0,2.0,89,0.00,,,0.00,Wunderground v.1.15,2013-08-17 13:17:00,
2013-08-17 08:22:00,62.8,58.9,30.11,NNE,24,1.0,2.0,87,0.00,,,0.00,Wunderground v.1.15,2013-08-17 13:22:00,
2013-08-17 08:28:00,63.7,59.1,30.11,ESE,117,1.0,2.0,85,0.00,,,0.00,Wunderground v.1.15,2013-08-17 13:28:00,
2013-08-17 08:34:00,64.5,59.2,30.11,East,92,0.0,1.0,83,0.00,,,0.00,Wunderground v.1.15,2013-08-17 13:34:00,
2013-08-17 08:40:00,65.6,59.6,30.11,East,89,0.0,1.0,81,0.00,,,0.00,Wunderground v.1.15,2013-08-17 13:40:00,
2013-08-17 08:46:00,66.6,60.2,30.11,East,99,0.0,1.0,80,0.00,,,0.00,Wunderground v.1.15,2013-08-17 13:46:00,
2013-08-17 08:51:00,67.1,60.4,30.11,ESE,105,0.0,2.0,79,0.00,,,0.00,Wunderground v.1.15,2013-08-17 13:51:00,
2013-08-17 08:57:00,67.9,60.4,30.11,North,1,0.0,1.0,77,0.00,,,0.00,Wunderground v.1.15,2013-08-17 13:57:00,
2013-08-17 09:04:00,68.2,60.7,30.11,SE,142,0.0,1.0,77,0.00,,,0.00,Wunderground v.1.15,2013-08-17 14:04:00,
2013-08-17 09:10:00,69.8,59.6,30.11,SE,127,0.0,2.0,70,0.00,,,0.00,Wunderground v.1.15,2013-08-17 14:10:00,
2013-08-17 09:16:00,70.2,60.0,30.11,SE,131,0.0,1.0,70,0.00,,,0.00,Wunderground v.1.15,2013-08-17 14:16:00,
2013-08-17 09:22:00,70.8,59.7,30.11,SE,136,0.0,2.0,68,0.00,,,0.00,Wunderground v.1.15,2013-08-17 14:22:00,
2013-08-17 09:28:00,71.6,60.9,30.11,South,174,0.0,1.0,69,0.00,,,0.00,Wunderground v.1.15,2013-08-17 14:28:00,
2013-08-17 09:34:00,71.9,59.1,30.11,SE,145,1.0,3.0,64,0.00,,,0.00,Wunderground v.1.15,2013-08-17 14:34:00,
2013-08-17 09:39:00,72.1,59.2,30.11,ESE,123,1.0,3.0,64,0.00,,,0.00,Wunderground v.1.15,2013-08-17 14:39:00,
2013-08-17 09:45:00,72.5,58.7,30.11,SE,141,1.0,1.0,62,0.00,,,0.00,Wunderground v.1.15,2013-08-17 14:45:00,
2013-08-17 09:51:00,73.0,60.1,30.11,SSE,149,1.0,2.0,64,0.00,,,0.00,Wunderground v.1.15,2013-08-17 14:51:00,
2013-08-17 09:57:00,73.2,60.3,30.11,SE,145,1.0,2.0,64,0.00,,,0.00,Wunderground v.1.15,2013-08-17 14:57:00,
2013-08-17 10:04:00,73.5,61.0,30.11,South,183,1.0,1.0,65,0.00,,,0.00,Wunderground v.1.15,2013-08-17 15:04:00,
2013-08-17 10:10:00,73.7,58.9,30.11,SW,218,1.0,5.0,60,0.00,,,0.00,Wunderground v.1.15,2013-08-17 15:10:00,
2013-08-17 10:16:00,73.8,58.1,30.11,SSE,160,2.0,3.0,58,0.00,,,0.00,Wunderground v.1.15,2013-08-17 15:16:00,
2013-08-17 10:22:00,74.2,58.5,30.11,SSE,158,2.0,3.0,58,0.00,,,0.00,Wunderground v.1.15,2013-08-17 15:22:00,
2013-08-17 10:28:00,74.8,59.0,30.11,East,82,2.0,3.0,58,0.00,,,0.00,Wunderground v.1.15,2013-08-17 15:28:00,
2013-08-17 10:34:00,75.1,58.8,30.11,ENE,69,2.0,3.0,57,0.00,,,0.00,Wunderground v.1.15,2013-08-17 15:34:00,
2013-08-17 10:40:00,75.3,57.0,30.12,SSE,153,2.0,4.0,53,0.00,,,0.00,Wunderground v.1.15,2013-08-17 15:40:00,
2013-08-17 10:46:00,75.6,59.3,30.12,SSE,150,2.0,3.0,57,0.00,,,0.00,Wunderground v.1.15,2013-08-17 15:46:00,
2013-08-17 10:52:00,75.9,57.5,30.11,ESE,122,2.0,3.0,53,0.00,,,0.00,Wunderground v.1.15,2013-08-17 15:52:00,
2013-08-17 10:58:00,75.8,58.5,30.11,South,174,2.0,3.0,55,0.00,,,0.00,Wunderground v.1.15,2013-08-17 15:58:00,
2013-08-17 11:04:00,75.8,59.0,30.11,SSW,195,2.0,2.0,56,0.00,,,0.00,Wunderground v.1.15,2013-08-17 16:04:00,
2013-08-17 11:10:00,75.8,57.4,30.11,ESE,119,2.0,5.0,53,0.00,,,0.00,Wunderground v.1.15,2013-08-17 16:10:00,
2013-08-17 11:16:00,75.6,57.8,30.11,SE,135,2.0,3.0,54,0.00,,,0.00,Wunderground v.1.15,2013-08-17 16:16:00,
2013-08-17 11:21:00,76.1,58.2,30.11,ESE,107,2.0,5.0,54,0.00,,,0.00,Wunderground v.1.15,2013-08-17 16:21:00,
2013-08-17 11:27:00,76.3,57.4,30.11,ESE,121,2.0,6.0,52,0.00,,,0.00,Wunderground v.1.15,2013-08-17 16:27:00,
2013-08-17 11:33:00,76.1,59.3,30.10,SE,145,2.0,6.0,56,0.00,,,0.00,Wunderground v.1.15,2013-08-17 16:33:00,
2013-08-17 11:39:00,76.8,57.8,30.10,SSW,200,2.0,2.0,52,0.00,,,0.00,Wunderground v.1.15,2013-08-17 16:39:00,
2013-08-17 11:45:00,77.1,58.6,30.10,NNE,13,2.0,2.0,53,0.00,,,0.00,Wunderground v.1.15,2013-08-17 16:45:00,
2013-08-17 11:51:00,77.5,58.5,30.10,ESE,113,2.0,3.0,52,0.00,,,0.00,Wunderground v.1.15,2013-08-17 16:51:00,
2013-08-17 11:56:00,77.4,58.4,30.10,East,100,2.0,3.0,52,0.00,,,0.00,Wunderground v.1.15,2013-08-17 16:56:00,
2013-08-17 12:04:00,77.7,58.1,30.10,SSE,152,2.0,3.0,51,0.00,,,0.00,Wunderground v.1.15,2013-08-17 17:04:00,
2013-08-17 12:10:00,77.3,58.3,30.10,South,186,2.0,5.0,52,0.00,,,0.00,Wunderground v.1.15,2013-08-17 17:10:00,
2013-08-17 12:17:00,77.9,58.3,30.09,South,177,2.0,3.0,51,0.00,,,0.00,Wunderground v.1.15,2013-08-17 17:17:00,
2013-08-17 12:23:00,78.1,58.5,30.09,SSE,162,2.0,3.0,51,0.00,,,0.00,Wunderground v.1.15,2013-08-17 17:23:00,
2013-08-17 12:29:00,78.5,56.6,30.09,NW,304,2.0,5.0,47,0.00,,,0.00,Wunderground v.1.15,2013-08-17 17:29:00,
2013-08-17 12:35:00,78.2,56.9,30.09,North,11,3.0,4.0,48,0.00,,,0.00,Wunderground v.1.15,2013-08-17 17:35:00,
2013-08-17 12:41:00,78.1,56.2,30.09,ESE,123,3.0,6.0,47,0.00,,,0.00,Wunderground v.1.15,2013-08-17 17:41:00,
2013-08-17 12:47:00,78.3,57.6,30.09,SSE,164,3.0,3.0,49,0.00,,,0.00,Wunderground v.1.15,2013-08-17 17:47:00,
2013-08-17 12:52:00,78.4,57.1,30.09,SE,125,3.0,6.0,48,0.00,,,0.00,Wunderground v.1.15,2013-08-17 17:52:00,
2013-08-17 12:58:00,78.3,57.0,30.09,ESE,106,3.0,9.0,48,0.00,,,0.00,Wunderground v.1.15,2013-08-17 17:58:00,
2013-08-17 13:05:00,78.5,58.3,30.09,SW,231,3.0,3.0,50,0.00,,,0.00,Wunderground v.1.15,2013-08-17 18:05:00,
2013-08-17 13:10:00,79.1,58.9,30.08,ESE,115,3.0,5.0,50,0.00,,,0.00,Wunderground v.1.15,2013-08-17 18:10:00,
2013-08-17 13:15:00,79.3,57.3,30.08,ESE,103,2.0,3.0,47,0.00,,,0.00,Wunderground v.1.15,2013-08-17 18:15:00,
2013-08-17 13:21:00,78.8,58.0,30.08,East,99,2.0,3.0,49,0.00,,,0.00,Wunderground v.1.15,2013-08-17 18:21:00,
2013-08-17 13:26:00,79.2,58.4,30.08,ENE,77,2.0,2.0,49,0.00,,,0.00,Wunderground v.1.15,2013-08-17 18:26:00,
2013-08-17 13:32:00,79.2,58.4,30.08,SE,131,2.0,4.0,49,0.00,,,0.00,Wunderground v.1.15,2013-08-17 18:32:00,
2013-08-17 13:38:00,79.0,58.2,30.08,SSE,156,3.0,6.0,49,0.00,,,0.00,Wunderground v.1.15,2013-08-17 18:38:00,
2013-08-17 13:44:00,79.6,57.6,30.08,SE,139,3.0,6.0,47,0.00,,,0.00,Wunderground v.1.15,2013-08-17 18:44:00,
2013-08-17 13:50:00,80.0,58.5,30.08,ENE,66,2.0,3.0,48,0.00,,,0.00,Wunderground v.1.15,2013-08-17 18:50:00,
2013-08-17 13:55:00,80.5,59.0,30.07,SSW,197,2.0,2.0,48,0.00,,,0.00,Wunderground v.1.15,2013-08-17 18:55:00,
2013-08-17 14:05:00,80.0,57.4,30.07,ESE,121,3.0,4.0,46,0.00,,,0.00,Wunderground v.1.15,2013-08-17 19:05:00,
2013-08-17 14:10:00,79.0,58.2,30.07,NE,37,3.0,4.0,49,0.00,,,0.00,Wunderground v.1.15,2013-08-17 19:10:00,
2013-08-17 14:16:00,78.8,58.6,30.07,SE,136,2.0,2.0,50,0.00,,,0.00,Wunderground v.1.15,2013-08-17 19:16:00,
2013-08-17 14:22:00,79.5,59.8,30.07,East,88,2.0,3.0,51,0.00,,,0.00,Wunderground v.1.15,2013-08-17 19:22:00,
2013-08-17 14:28:00,79.5,58.7,30.07,NNE,20,2.0,3.0,49,0.00,,,0.00,Wunderground v.1.15,2013-08-17 19:28:00,
2013-08-17 14:34:00,79.3,58.5,30.06,SSW,210,1.0,3.0,49,0.00,,,0.00,Wunderground v.1.15,2013-08-17 19:34:00,
2013-08-17 14:40:00,79.8,58.4,30.06,North,352,2.0,4.0,48,0.00,,,0.00,Wunderground v.1.15,2013-08-17 19:40:00,
2013-08-17 14:46:00,80.2,57.5,30.06,ENE,58,2.0,3.0,46,0.00,,,0.00,Wunderground v.1.15,2013-08-17 19:46:00,
2013-08-17 14:51:00,80.2,58.7,30.06,SE,129,2.0,6.0,48,0.00,,,0.00,Wunderground v.1.15,2013-08-17 19:51:00,
2013-08-17 14:57:00,80.4,59.5,30.06,ESE,110,2.0,3.0,49,0.00,,,0.00,Wunderground v.1.15,2013-08-17 19:57:00,
2013-08-17 15:05:00,80.8,58.7,30.06,ESE,114,2.0,5.0,47,0.00,,,0.00,Wunderground v.1.15,2013-08-17 20:05:00,
2013-08-17 15:10:00,78.7,57.9,30.06,NW,305,2.0,5.0,49,0.00,,,0.00,Wunderground v.1.15,2013-08-17 20:10:00,
2013-08-17 15:16:00,78.8,57.4,30.06,ESE,104,2.0,3.0,48,0.00,,,0.00,Wunderground v.1.15,2013-08-17 20:16:00,
2013-08-17 15:22:00,79.1,58.3,30.05,SSW,195,1.0,3.0,49,0.00,,,0.00,Wunderground v.1.15,2013-08-17 20:22:00,
2013-08-17 15:27:00,79.1,58.3,30.05,ESE,117,1.0,2.0,49,0.00,,,0.00,Wunderground v.1.15,2013-08-17 20:27:00,
2013-08-17 15:33:00,78.0,57.9,30.05,East,94,1.0,2.0,50,0.00,,,0.00,Wunderground v.1.15,2013-08-17 20:33:00,
2013-08-17 15:39:00,77.9,58.9,30.05,SSE,159,1.0,2.0,52,0.00,,,0.00,Wunderground v.1.15,2013-08-17 20:39:00,
2013-08-17 15:45:00,78.6,57.3,30.05,South,181,1.0,2.0,48,0.00,,,0.00,Wunderground v.1.15,2013-08-17 20:45:00,
2013-08-17 15:51:00,79.0,58.2,30.04,ESE,103,1.0,2.0,49,0.00,,,0.00,Wunderground v.1.15,2013-08-17 20:51:00,
2013-08-17 15:57:00,79.4,58.6,30.04,SE,143,1.0,4.0,49,0.00,,,0.00,Wunderground v.1.15,2013-08-17 20:57:00,
2013-08-17 16:05:00,79.3,59.6,30.04,ENE,65,2.0,2.0,51,0.00,,,0.00,Wunderground v.1.15,2013-08-17 21:05:00,
2013-08-17 16:10:00,80.5,57.8,30.04,SSE,155,2.0,4.0,46,0.00,,,0.00,Wunderground v.1.15,2013-08-17 21:10:00,
2013-08-17 16:16:00,80.4,59.5,30.04,ESE,113,2.0,4.0,49,0.00,,,0.00,Wunderground v.1.15,2013-08-17 21:16:00,
2013-08-17 16:22:00,80.3,57.6,30.04,SE,124,2.0,4.0,46,0.00,,,0.00,Wunderground v.1.15,2013-08-17 21:22:00,
2013-08-17 16:28:00,78.9,57.0,30.04,ESE,109,2.0,2.0,47,0.00,,,0.00,Wunderground v.1.15,2013-08-17 21:28:00,
2013-08-17 16:34:00,78.4,58.2,30.04,ESE,104,1.0,3.0,50,0.00,,,0.00,Wunderground v.1.15,2013-08-17 21:34:00,
2013-08-17 16:39:00,79.6,57.6,30.03,SE,136,1.0,2.0,47,0.00,,,0.00,Wunderground v.1.15,2013-08-17 21:39:00,
2013-08-17 16:45:00,79.6,58.2,30.04,NNE,25,2.0,2.0,48,0.00,,,0.00,Wunderground v.1.15,2013-08-17 21:45:00,
2013-08-17 16:50:00,78.4,57.7,30.04,East,99,2.0,2.0,49,0.00,,,0.00,Wunderground v.1.15,2013-08-17 21:50:00,
2013-08-17 16:56:00,78.1,57.9,30.04,ENE,68,0.0,2.0,50,0.00,,,0.00,Wunderground v.1.15,2013-08-17 21:56:00,
2013-08-17 17:04:00,78.8,58.0,30.04,ENE,64,1.0,2.0,49,0.00,,,0.00,Wunderground v.1.15,2013-08-17 22:04:00,
2013-08-17 17:10:00,79.2,59.0,30.03,NE,52,1.0,2.0,50,0.00,,,0.00,Wunderground v.1.15,2013-08-17 22:10:00,
2013-08-17 17:16:00,79.0,58.8,30.03,SSW,199,1.0,1.0,50,0.00,,,0.00,Wunderground v.1.15,2013-08-17 22:16:00,
2013-08-17 17:22:00,79.6,58.8,30.03,ESE,122,1.0,3.0,49,0.00,,,0.00,Wunderground v.1.15,2013-08-17 22:22:00,
2013-08-17 17:28:00,78.8,57.4,30.03,ENE,57,2.0,3.0,48,0.00,,,0.00,Wunderground v.1.15,2013-08-17 22:28:00,
2013-08-17 17:34:00,79.0,58.8,30.03,East,91,1.0,1.0,50,0.00,,,0.00,Wunderground v.1.15,2013-08-17 22:34:00,
2013-08-17 17:39:00,79.4,57.4,30.03,ESE,105,1.0,3.0,47,0.00,,,0.00,Wunderground v.1.15,2013-08-17 22:39:00,
2013-08-17 17:45:00,78.3,58.1,30.03,SE,136,1.0,1.0,50,0.00,,,0.00,Wunderground v.1.15,2013-08-17 22:45:00,
2013-08-17 17:51:00,77.1,57.6,30.03,ESE,116,1.0,1.0,51,0.00,,,0.00,Wunderground v.1.15,2013-08-17 22:51:00,
2013-08-17 17:56:00,77.1,58.1,30.03,ESE,113,0.0,0.0,52,0.00,,,0.00,Wunderground v.1.15,2013-08-17 22:56:00,
2013-08-17 18:04:00,77.9,59.4,30.03,ESE,104,0.0,0.0,53,0.00,,,0.00,Wunderground v.1.15,2013-08-17 23:04:00,
2013-08-17 18:09:00,78.9,58.7,30.03,SE,144,0.0,2.0,50,0.00,,,0.00,Wunderground v.1.15,2013-08-17 23:09:00,
2013-08-17 18:15:00,79.4,56.8,30.02,ESE,114,1.0,3.0,46,0.00,,,0.00,Wunderground v.1.15,2013-08-17 23:15:00,
2013-08-17 18:20:00,79.5,58.1,30.02,East,94,1.0,3.0,48,0.00,,,0.00,Wunderground v.1.15,2013-08-17 23:20:00,
2013-08-17 18:26:00,79.5,57.5,30.02,ESE,110,1.0,3.0,47,0.00,,,0.00,Wunderground v.1.15,2013-08-17 23:26:00,
2013-08-17 18:32:00,79.1,57.1,30.02,East,88,2.0,5.0,47,0.00,,,0.00,Wunderground v.1.15,2013-08-17 23:32:00,
2013-08-17 18:38:00,78.8,56.9,30.02,SE,131,2.0,2.0,47,0.00,,,0.00,Wunderground v.1.15,2013-08-17 23:38:00,
2013-08-17 18:43:00,78.9,58.1,30.02,NE,50,1.0,3.0,49,0.00,,,0.00,Wunderground v.1.15,2013-08-17 23:43:00,
2013-08-17 18:49:00,79.0,57.0,30.02,East,101,1.0,1.0,47,0.00,,,0.00,Wunderground v.1.15,2013-08-17 23:49:00,
2013-08-17 18:55:00,79.0,57.0,30.02,SSW,197,1.0,2.0,47,0.00,,,0.00,Wunderground v.1.15,2013-08-17 23:55:00,
2013-08-17 19:04:00,78.3,56.4,30.02,SSE,153,1.0,1.0,47,0.00,,,0.00,Wunderground v.1.15,2013-08-18 00:04:00,
2013-08-17 19:10:00,77.0,56.4,30.02,SSE,147,1.0,2.0,49,0.00,,,0.00,Wunderground v.1.15,2013-08-18 00:10:00,
2013-08-17 19:16:00,76.6,56.6,30.02,SSE,154,1.0,1.0,50,0.00,,,0.00,Wunderground v.1.15,2013-08-18 00:16:00,
2013-08-17 19:22:00,76.3,56.8,30.02,SE,136,0.0,1.0,51,0.00,,,0.00,Wunderground v.1.15,2013-08-18 00:22:00,
2013-08-17 19:28:00,76.2,57.3,30.02,ESE,105,0.0,1.0,52,0.00,,,0.00,Wunderground v.1.15,2013-08-18 00:28:00,
2013-08-17 19:33:00,76.0,57.1,30.02,ESE,115,0.0,1.0,52,0.00,,,0.00,Wunderground v.1.15,2013-08-18 00:33:00,
2013-08-17 19:39:00,75.9,58.6,30.02,SE,125,0.0,0.0,55,0.00,,,0.00,Wunderground v.1.15,2013-08-18 00:39:00,
2013-08-17 19:45:00,75.0,58.7,30.02,ESE,121,0.0,0.0,57,0.00,,,0.00,Wunderground v.1.15,2013-08-18 00:45:00,
2013-08-17 19:51:00,73.7,59.4,30.02,East,96,0.0,0.0,61,0.00,,,0.00,Wunderground v.1.15,2013-08-18 00:51:00,
2013-08-17 19:56:00,72.0,58.7,30.02,NNE,25,0.0,1.0,63,0.00,,,0.00,Wunderground v.1.15,2013-08-18 00:56:00,
2013-08-17 20:04:00,71.1,59.2,30.02,North,359,0.0,2.0,66,0.00,,,0.00,Wunderground v.1.15,2013-08-18 01:04:00,
2013-08-17 20:10:00,68.5,58.7,30.02,North,360,1.0,3.0,71,0.00,,,0.00,Wunderground v.1.15,2013-08-18 01:10:00,
2013-08-17 20:16:00,67.4,58.4,30.02,North,11,2.0,2.0,73,0.00,,,0.00,Wunderground v.1.15,2013-08-18 01:16:00,
2013-08-17 20:22:00,66.5,58.7,30.02,North,3,2.0,3.0,76,0.00,,,0.00,Wunderground v.1.15,2013-08-18 01:22:00,
2013-08-17 20:27:00,65.8,58.7,30.02,North,1,2.0,4.0,78,0.00,,,0.00,Wunderground v.1.15,2013-08-18 01:27:00,
2013-08-17 20:33:00,65.2,58.5,30.02,NNE,14,3.0,4.0,79,0.00,,,0.00,Wunderground v.1.15,2013-08-18 01:33:00,
2013-08-17 20:39:00,64.7,58.7,30.02,NNE,12,3.0,4.0,81,0.00,,,0.00,Wunderground v.1.15,2013-08-18 01:39:00,
2013-08-17 20:44:00,64.2,58.6,30.02,NNE,12,3.0,4.0,82,0.00,,,0.00,Wunderground v.1.15,2013-08-18 01:44:00,
2013-08-17 20:50:00,63.8,58.2,30.02,North,11,3.0,4.0,82,0.00,,,0.00,Wunderground v.1.15,2013-08-18 01:50:00,
2013-08-17 20:56:00,63.4,58.1,30.02,North,11,3.0,4.0,83,0.00,,,0.00,Wunderground v.1.15,2013-08-18 01:56:00,
2013-08-17 21:05:00,62.9,57.7,30.02,NNE,27,4.0,4.0,83,0.00,,,0.00,Wunderground v.1.15,2013-08-18 02:05:00,
2013-08-17 21:10:00,62.6,57.7,30.02,NNE,14,3.0,4.0,84,0.00,,,0.00,Wunderground v.1.15,2013-08-18 02:10:00,
2013-08-17 21:16:00,62.3,57.7,30.02,NNE,21,3.0,3.0,85,0.00,,,0.00,Wunderground v.1.15,2013-08-18 02:16:00,
2013-08-17 21:22:00,62.0,57.4,30.02,North,11,3.0,4.0,85,0.00,,,0.00,Wunderground v.1.15,2013-08-18 02:22:00,
2013-08-17 21:28:00,61.7,57.5,30.03,NNE,18,3.0,3.0,86,0.00,,,0.00,Wunderground v.1.15,2013-08-18 02:28:00,
2013-08-17 21:33:00,61.5,57.3,30.03,NNE,14,3.0,4.0,86,0.00,,,0.00,Wunderground v.1.15,2013-08-18 02:33:00,
2013-08-17 21:39:00,61.3,57.1,30.03,NNE,13,3.0,3.0,86,0.00,,,0.00,Wunderground v.1.15,2013-08-18 02:39:00,
2013-08-17 21:44:00,61.1,56.9,30.03,North,3,3.0,3.0,86,0.00,,,0.00,Wunderground v.1.15,2013-08-18 02:44:00,
2013-08-17 21:50:00,60.9,57.0,30.03,North,9,3.0,4.0,87,0.00,,,0.00,Wunderground v.1.15,2013-08-18 02:50:00,
2013-08-17 21:56:00,60.7,56.8,30.03,North,9,3.0,3.0,87,0.00,,,0.00,Wunderground v.1.15,2013-08-18 02:56:00,
2013-08-17 22:02:00,60.4,56.5,30.03,North,8,3.0,3.0,87,0.00,,,0.00,Wunderground v.1.15,2013-08-18 03:02:00,
2013-08-17 22:08:00,60.1,56.5,30.03,North,4,2.0,3.0,88,0.00,,,0.00,Wunderground v.1.15,2013-08-18 03:08:00,
2013-08-17 22:14:00,59.9,56.3,30.03,North,11,3.0,3.0,88,0.00,,,0.00,Wunderground v.1.15,2013-08-18 03:14:00,
2013-08-17 22:19:00,59.8,56.6,30.03,NNE,13,3.0,3.0,89,0.00,,,0.00,Wunderground v.1.15,2013-08-18 03:19:00,
2013-08-17 22:25:00,59.8,56.2,30.03,North,11,3.0,3.0,88,0.00,,,0.00,Wunderground v.1.15,2013-08-18 03:25:00,
2013-08-17 22:30:00,59.7,56.1,30.03,NNE,14,3.0,3.0,88,0.00,,,0.00,Wunderground v.1.15,2013-08-18 03:30:00,
2013-08-17 22:36:00,59.6,56.4,30.03,North,6,3.0,3.0,89,0.00,,,0.00,Wunderground v.1.15,2013-08-18 03:36:00,
2013-08-17 22:42:00,59.5,56.3,30.04,NNE,13,3.0,4.0,89,0.00,,,0.00,Wunderground v.1.15,2013-08-18 03:42:00,
2013-08-17 22:47:00,59.4,56.2,30.03,North,356,3.0,4.0,89,0.00,,,0.00,Wunderground v.1.15,2013-08-18 03:47:00,
2013-08-17 22:53:00,59.4,56.2,30.03,North,5,3.0,3.0,89,0.00,,,0.00,Wunderground v.1.15,2013-08-18 03:53:00,
2013-08-17 22:59:00,59.1,55.9,30.03,North,11,3.0,4.0,89,0.00,,,0.00,Wunderground v.1.15,2013-08-18 03:59:00,
2013-08-17 23:04:00,59.1,55.9,30.03,NNE,15,3.0,3.0,89,0.00,,,0.00,Wunderground v.1.15,2013-08-18 04:04:00,
2013-08-17 23:05:00,59.2,56.0,30.03,NNE,15,3.0,3.0,89,0.00,,,0.00,Wunderground v.1.15,2013-08-18 04:05:00,
2013-08-17 23:08:00,59.1,55.9,30.03,NNE,18,3.0,3.0,89,0.00,,,0.00,Wunderground v.1.15,2013-08-18 04:08:00,
2013-08-17 23:11:00,59.0,55.8,30.03,North,1,2.0,3.0,89,0.00,,,0.00,Wunderground v.1.15,2013-08-18 04:11:00,
2013-08-17 23:13:00,58.8,55.9,30.03,NNE,13,2.0,2.0,90,0.00,,,0.00,Wunderground v.1.15,2013-08-18 04:13:00,
2013-08-17 23:19:00,58.7,55.8,30.04,North,9,3.0,3.0,90,0.00,,,0.00,Wunderground v.1.15,2013-08-18 04:19:00,
2013-08-17 23:25:00,58.8,55.9,30.04,North,8,3.0,4.0,90,0.00,,,0.00,Wunderground v.1.15,2013-08-18 04:25:00,
2013-08-17 23:31:00,58.8,55.9,30.04,NNE,14,4.0,4.0,90,0.00,,,0.00,Wunderground v.1.15,2013-08-18 04:31:00,
2013-08-17 23:37:00,58.8,55.9,30.04,North,10,4.0,4.0,90,0.00,,,0.00,Wunderground v.1.15,2013-08-18 04:37:00,
2013-08-17 23:42:00,58.6,55.7,30.04,North,359,3.0,4.0,90,0.00,,,0.00,Wunderground v.1.15,2013-08-18 04:42:00,
2013-08-17 23:48:00,58.4,55.8,30.04,NNE,13,3.0,3.0,91,0.00,,,0.00,Wunderground v.1.15,2013-08-18 04:48:00,
2013-08-17 23:54:00,58.3,55.7,30.04,North,1,2.0,3.0,91,0.00,,,0.00,Wunderground v.1.15,2013-08-18 04:54:00,
2013-08-17 23:59:00,58.0,55.4,30.04,North,359,2.0,3.0,91,0.00,,,0.00,Wunderground v.1.15,2013-08-18 04:59:00,